Temp
15 14 14 14 14 14 14 14 13 14 14 13 13 12 13 13 12 12 12 12 12 12 11 11 11 11 11 11 11 11 11 11 10 10 10 10 10 10 9 9 10 11 12 12 12 12 12 12 12 12 12 13
14 14 14 14 14 14 14 14 14 14 13 13 13 12 12 12 12 12 12 12 12 12 11 11 11 11 11 11 11 10 11 11 10 9 10 10 9 9 8 9 10 11 12 12 12 12 12 12 12 12 12 12
14 14 14 14 14 14 14 14 14 13 13 13 13 12 12 12 12 12 12 12 12 11 11 11 11 11 11 11 11 11 10 10 10 9 9 9 8 8 8 9 10 11 11 12 12 12 12 12 12 12 12 12
13 14 14 13 13 14 13 13 13 13 13 13 13 12 12 12 12 12 12 11 11 11 11 11 11 11 11 11 11 11 10 10 9 9 8 8 8 8 9 10 10 11 11 11 12 11 11 12 11 11 11 12
13 13 13 13 13 13 13 13 13 13 13 13 13 12 12 12 12 11 11 11 11 11 11 11 11 11 11 11 11 10 10 9 9 8 8 7 8 9 9 10 10 11 11 11 11 11 11 11 11 11 11 11
13 13 13 13 13 13 13 13 13 13 12 12 12 12 12 11 11 11 11 11 11 11 11 11 11 11 11 11 10 10 10 9 9 8 7 8 9 9 9 10 10 10 11 11 11 11 11 11 11 11 11 11
13 13 13 13 12 12 13 12 12 12 12 12 12 12 11 11 11 11 11 11 11 11 10 10 10 10 10 10 10 9 9 9 8 7 7 8 9 9 10 10 10 10 10 10 11 11 11 11 11 11 11 11
13 13 13 13 12 12 12 12 12 12 12 12 12 12 11 11 11 10 10 10 10 10 10 10 10 10 10 9 9 9 9 8 8 7 7 8 9 9 10 10 10 10 10 10 10 10 10 11 11 10 10 11
13 13 13 12 12 12 12 12 12 12 11 11 11 11 11 11 11 10 10 10 10 10 10 10 10 10 9 9 9 9 8 8 8 8 8 8 8 9 9 9 10 10 10 10 10 10 10 10 10 10 10 11
13 13 13 12 12 12 12 12 12 12 11 11 11 11 11 11 11 10 10 10 10 10 9 10 10 9 9 9 9 8 8 8 8 8 8 8 8 8 9 9 9 9 9 9 10 10 10 10 10 10 10 10
13 13 12 12 12 12 11 11 12 11 11 11 11 11 11 11 11 10 10 10 10 10 9 9 9 9 9 9 9 9 8 8 8 8 8 8 8 8 8 8 8 8 9 9 9 10 10 9 9 9 9 10
12 12 12 12 12 12 11 11 11 11 11 11 11 11 11 11 11 10 10 10 10 10 9 9 9 9 9 9 9 9 8 8 8 7 8 8 8 8 8 8 8 8 8 8 9 9 9 9 9 9 9 9
13 12 12 12 12 11 11 11 11 11 11 11 11 11 11 11 10 10 10 10 10 9 9 9 9 9 9 9 9 9 8 8 8 8 8 8 8 8 8 8 8 8 8 8 9 9 9 9 9 9 9 9
13 12 12 12 11 11 11 11 11 11 11 11 11 11 11 11 10 10 10 10 9 9 9 9 9 9 9 9 9 8 8 8 8 8 8 8 8 8 8 7 7 7 8 8 8 8 8 9 9 9 9 9
13 12 12 12 11 11 11 11 11 11 11 11 12 12 11 11 10 10 10 10 9 9 9 9 9 9 9 8 8 8 8 8 8 8 8 8 8 8 8 7 7 7 7 7 8 8 8 8 8 8 8 8
12 12 12 11 11 10 11 11 11 11 11 11 11 11 11 11 10 10 10 10 9 9 9 9 9 9 8 8 8 8 8 8 8 8 8 8 8 8 8 7 7 7 7 7 7 7 7 7 8 8 8 8
12 12 12 11 11 10 10 10 10 10 10 10 10 10 10 11 10 10 10 10 9 9 9 9 9 9 8 8 8 8 8 8 7 7 7 7 8 7 7 7 7 6 6 7 7 7 7 7 7 7 8 8
12 12 12 12 11 10 10 10 10 10 10 10 9 9 9 10 10 10 10 10 9 9 9 9 9 9 9 8 8 8 7 7 7 7 7 7 7 7 7 6 6 6 6 6 6 6 6 6 7 7 7 7
12 12 12 12 11 11 10 10 10 10 10 9 9 8 8 9 10 10 10 10 9 9 9 8 9 9 9 8 8 8 7 7 7 7 7 7 6 6 6 6 5 5 5 5 6 6 6 6 6 6 7 7
11 12 12 12 12 11 11 10 9 9 9 9 8 8 9 8 8 9 9 9 9 9 9 8 8 9 8 8 8 8 7 7 7 7 6 6 7 6 5 5 5 5 5 5 5 5 5 6 6 6 6 6
9 11 11 12 12 11 11 10 10 9 9 8 8 8 8 8 8 8 8 8 9 9 9 8 8 8 8 8 8 7 7 7 7 7 6 6 6 7 6 5 5 5 5 5 5 5 5 5 5 6 6 6
8 9 10 10 11 11 11 10 10 10 9 8 8 8 8 8 8 8 8 8 8 9 8 8 8 8 8 7 7 7 7 7 6 6 6 6 6 6 6 6 5 5 4 5 5 5 5 5 5 5 6 6
7 7 8 8 9 9 10 10 10 10 9 9 9 9 8 8 7 7 7 7 8 8 8 8 7 7 7 7 7 7 7 6 6 6 6 6 6 5 6 6 6 5 5 5 5 4 4 4 4 5 5 5
5 6 6 6 7 7 8 8 9 9 10 10 10 9 9 8 8 8 7 7 8 7 7 7 7 7 6 6 7 7 6 6 6 6 6 6 6 5 5 6 6 5 5 4 4 4 4 4 4 4 4 4
2 3 3 4 4 5 6 7 7 8 9 9 10 10 9 9 8 8 8 7 7 7 7 7 7 6 6 6 6 6 6 6 6 6 6 6 6 5 5 5 5 5 4 4 3 3 3 3 3 3 3 3
1 1 2 2 3 4 5 5 5 6 7 8 8 9 9 9 8 8 7 7 7 7 7 7 6 6 6 6 6 6 6 6 6 6 6 5 5 5 5 4 4 4 4 3 2 2 2 2 3 3 3 3
-0 0 1 1 2 3 4 4 5 5 5 6 6 7 8 8 8 7 7 7 7 7 6 6 6 6 6 6 5 5 5 5 5 5 5 5 5 5 4 4 4 4 4 3 2 2 2 2 2 2 2 3
-0 0 1 1 2 3 4 4 5 5 4 4 4 5 6 6 6 7 7 7 7 7 6 6 6 6 6 6 6 5 5 5 4 5 5 5 5 5 4 4 4 4 4 4 4 3 2 1 1 3 2 1
-1 -0 1 1 2 2 3 3 3 3 3 3 3 3 4 4 5 5 6 6 7 6 6 6 6 6 6 6 5 5 5 5 5 4 4 4 5 5 4 4 3 4 4 5 5 5 4 2 3 4 2 1
-2 -2 -1 -1 -0 -0 -0 -0 0 0 0 0 1 2 3 3 4 4 5 5 5 5 5 5 6 6 6 5 5 5 5 5 5 4 4 4 4 4 5 4 3 3 3 4 5 6 6 6 5 4 2 2
-2 -2 -2 -2 -2 -2 -2 -2 -1 -1 -1 -1 -0 1 2 2 3 3 4 4 5 5 4 4 5 5 5 5 5 4 4 4 4 5 4 4 4 4 4 4 3 3 3 3 3 5 6 6 6 6 4 3
Height
797 799 799 800 802 805 807 809 810 809 811 815 817 820 822 824 826 827 828 829 830 832 833 832 834 835 837 839 841 842 844 845 845 846 846 846 846 847 848 849 849 851 852 851 852 852 853 854 854 855 854 854
796 797 798 799 801 803 805 808 809 809 810 813 816 818 820 823 825 827 828 828 828 829 831 832 834 835 837 838 840 841 843 844 845 845 845 845 846 847 848 848 849 851 852 852 852 853 853 854 855 855 855 856
798 798 798 799 801 802 804 806 807 809 810 811 814 817 819 821 823 825 827 827 827 828 829 831 833 835 837 837 839 841 842 843 844 844 844 844 846 846 847 848 849 850 851 852 853 854 854 855 855 856 856 857
802 801 800 801 801 801 803 806 807 808 809 809 812 815 818 820 822 824 825 826 826 827 828 829 831 834 836 837 838 840 841 842 843 843 843 844 845 845 846 847 848 850 851 852 854 855 855 856 856 856 857 858
802 802 802 802 802 802 803 804 806 807 808 809 810 814 817 819 821 823 823 825 826 826 827 828 830 832 834 836 837 838 840 841 842 842 842 842 843 845 847 847 848 849 851 852 854 855 856 856 857 857 858 858
800 801 801 802 802 803 804 805 806 807 808 809 809 812 815 818 820 821 822 824 825 826 828 829 830 831 833 835 836 837 839 840 841 841 841 841 842 844 846 847 847 849 850 852 854 855 856 857 857 858 858 859
799 800 800 801 802 803 804 805 806 806 808 808 808 810 813 816 818 820 822 823 825 825 827 828 829 830 832 834 835 836 838 839 841 841 841 841 842 843 844 846 847 848 849 850 853 855 856 857 857 857 858 859
796 798 799 799 801 802 802 803 805 806 807 808 808 809 812 815 817 819 821 824 825 825 825 826 827 829 830 832 834 835 836 838 839 839 840 841 841 842 844 845 846 848 849 850 852 854 856 856 857 857 858 859
795 796 798 799 799 800 800 801 804 806 807 808 809 810 812 814 817 819 821 823 824 825 825 825 825 826 827 830 832 833 834 835 836 838 839 840 841 842 843 845 846 848 849 850 851 853 855 856 856 857 857 858
795 795 796 797 797 798 799 801 804 806 807 808 809 810 812 814 816 818 820 822 823 825 825 824 824 824 824 826 829 831 832 834 836 838 839 839 841 842 843 844 846 847 849 850 851 852 853 854 855 856 857 858
795 795 794 794 796 797 799 801 803 805 806 807 808 810 812 814 816 818 819 821 822 824 824 824 824 824 823 823 826 828 830 833 835 837 838 839 840 841 842 844 845 846 848 849 850 851 852 853 854 856 857 858
795 794 793 793 794 795 797 799 801 803 805 806 808 809 811 814 816 817 818 819 821 822 823 823 823 823 823 823 824 825 828 831 833 835 837 838 839 840 842 843 844 845 847 848 848 849 850 852 854 856 857 857
794 794 793 792 792 793 795 797 798 801 803 805 807 809 810 811 813 815 816 818 819 820 821 821 822 823 823 823 823 823 825 828 830 833 835 837 838 840 841 842 843 844 845 846 847 848 849 851 853 855 856 856
793 793 793 792 791 791 793 795 797 798 799 800 803 805 806 808 810 811 813 815 817 819 819 819 820 821 822 822 822 822 823 825 827 829 832 834 836 838 840 841 842 843 844 845 846 847 848 850 852 854 855 855
791 792 792 791 790 790 791 793 795 796 796 795 796 798 801 804 806 808 810 812 815 817 818 818 818 819 821 821 821 822 822 824 825 827 829 831 833 836 837 839 840 842 842 843 845 846 847 849 851 853 854 855
789 790 792 791 791 792 791 791 792 794 795 794 794 795 796 799 802 804 806 809 812 814 816 817 817 818 819 820 821 822 822 823 824 826 828 829 831 833 835 837 838 840 841 842 844 845 847 848 850 852 853 854
786 788 790 791 791 792 791 791 791 793 794 795 796 796 795 796 799 802 804 806 809 811 813 815 815 816 817 819 820 821 822 822 823 824 826 827 829 830 832 834 836 838 839 841 842 844 845 847 849 850 852 853
784 785 787 789 790 791 791 791 791 792 794 795 797 798 797 796 797 800 802 804 807 809 811 812 813 813 814 817 818 819 821 821 822 823 824 825 826 828 830 832 834 836 838 839 841 843 844 846 847 849 851 852
782 783 784 786 787 789 790 791 791 791 793 794 795 798 799 798 797 798 799 801 804 806 808 810 810 811 812 814 816 817 818 819 820 821 822 823 824 826 828 830 832 835 837 838 840 841 843 844 846 847 849 850
783 782 782 783 784 786 788 790 791 791 791 792 793 795 797 798 798 798 798 799 801 804 806 808 808 809 810 812 814 815 816 817 818 818 820 821 822 823 825 828 830 833 835 837 839 840 842 843 844 846 847 849
783 783 783 783 783 784 786 788 789 790 791 793 794 794 795 796 797 798 798 798 799 801 803 805 807 808 809 810 811 812 814 815 816 817 817 819 820 821 823 826 828 831 833 835 837 839 841 842 843 844 846 847
785 784 784 784 784 784 784 785 787 788 790 792 794 795 796 796 796 796 797 798 798 799 802 804 806 806 807 808 809 810 811 813 814 816 816 818 819 821 821 823 825 827 830 833 836 838 840 841 842 844 845 846
786 784 785 785 785 785 785 785 786 787 789 791 792 793 795 797 797 798 798 799 798 798 800 802 804 806 807 808 807 808 809 811 812 814 816 817 819 821 821 822 823 825 828 831 834 836 839 840 841 843 844 845
788 786 787 787 787 787 788 787 786 787 787 788 790 791 792 794 796 797 798 799 799 798 799 801 803 804 806 809 808 807 807 808 809 811 813 815 817 819 821 823 823 824 826 829 833 836 838 839 841 842 842 843
793 792 792 791 791 791 790 789 789 788 787 787 788 789 790 791 793 794 795 797 797 798 799 800 801 802 804 807 808 806 805 805 806 808 810 813 815 817 818 820 822 824 826 828 832 835 837 838 840 841 842 842
800 799 798 797 796 794 792 791 790 790 789 789 788 788 789 790 791 792 793 794 795 796 797 798 799 799 801 803 805 805 806 806 806 806 807 809 812 815 816 817 819 822 823 825 827 830 834 838 839 840 840 840
803 803 802 801 799 797 795 794 792 792 791 791 790 789 789 789 790 791 791 792 794 795 796 796 797 797 798 800 801 803 805 807 806 805 805 805 808 811 813 815 817 818 818 820 823 828 832 834 837 838 838 838
805 804 802 801 800 798 796 795 793 792 791 791 792 791 791 791 790 791 791 791 792 793 793 794 795 795 796 796 798 800 802 804 806 805 804 804 805 806 809 811 813 814 815 815 818 823 828 832 835 834 832 834
807 804 801 798 796 795 794 794 793 792 792 792 792 792 792 792 792 791 791 791 790 790 791 791 791 792 793 794 795 797 798 799 802 805 806 805 804 803 804 805 808 810 812 812 811 813 818 825 829 826 825 829
809 807 805 802 800 798 798 799 799 799 799 797 796 794 793 792 792 792 792 791 791 790 790 790 790 790 790 791 792 793 794 795 797 800 803 805 806 804 803 804 805 807 808 810 811 809 808 811 814 815 820 826
812 811 810 809 808 808 806 805 805 804 803 801 799 796 794 793 792 791 791 791 791 791 790 790 790 789 789 789 790 791 792 793 793 793 795 800 804 805 805 804 804 803 805 808 808 808 807 807 807 809 814 818
Wind_Speed
32 33 34 32 28 28 29 28 28 28 26 26 26 26 25 24 26 26 25 25 24 22 20 20 21 21 20 18 18 17 17 16 14 15 15 13 12 11 10 9 13 16 15 16 16 16 16 15 16 16 16 17
34 35 35 31 27 31 31 29 29 28 29 30 29 27 27 27 27 27 26 27 26 25 23 22 21 21 20 19 18 17 17 16 13 14 14 13 12 11 10 10 14 15 15 15 15 15 15 15 15 15 15 15
33 33 32 29 27 32 31 32 32 31 31 31 30 29 29 29 29 28 27 27 27 27 26 24 23 21 20 20 19 17 17 16 14 13 14 13 12 11 12 14 15 15 14 14 13 14 14 15 14 14 14 14
28 30 29 28 28 32 33 34 34 33 32 32 33 31 30 31 30 29 28 27 27 28 28 27 26 23 21 21 20 19 17 16 15 15 14 13 12 12 15 16 16 15 14 13 12 13 14 15 13 13 14 15
27 29 30 30 30 33 35 36 34 32 31 33 34 32 30 31 31 31 29 29 29 29 29 29 28 24 22 22 21 20 19 17 16 16 14 14 14 14 15 16 16 16 14 13 12 13 14 15 14 13 15 17
27 31 32 32 33 35 34 33 32 31 32 34 34 31 30 31 31 31 30 29 29 30 30 29 28 27 25 23 21 21 20 18 16 16 15 15 16 16 16 16 16 16 15 14 13 13 15 15 14 12 14 16
28 31 32 32 33 34 33 32 33 33 35 35 35 33 31 31 31 30 29 28 29 30 30 28 27 27 25 23 22 21 20 19 17 16 15 16 16 17 17 18 17 17 16 15 14 15 15 16 15 13 14 16
29 31 30 33 34 34 34 33 34 35 36 35 34 33 32 33 31 30 28 27 28 29 30 30 28 26 25 24 23 22 21 20 19 18 16 16 16 16 17 17 18 18 17 17 16 16 17 17 16 14 15 16
27 31 31 32 34 36 36 35 34 36 36 35 34 33 34 34 32 31 29 28 29 30 30 31 30 29 27 26 25 25 25 24 20 18 17 17 17 17 17 17 17 17 18 18 18 18 18 18 17 15 14 16
26 31 34 32 32 33 34 35 35 36 37 36 35 34 34 34 33 32 30 30 30 30 29 30 30 30 30 28 27 26 26 25 19 17 18 17 17 17 17 17 17 18 18 19 20 19 19 19 18 15 14 16
27 32 36 33 32 32 33 37 37 37 38 37 36 35 34 33 33 33 31 31 29 29 29 29 30 30 30 29 28 26 24 23 19 17 18 17 17 17 17 17 17 18 18 19 19 19 19 19 19 17 15 16
26 30 33 32 34 37 37 38 38 38 38 36 36 35 34 32 32 33 32 32 30 30 30 30 30 30 30 29 27 25 23 22 19 18 17 16 16 16 16 16 17 17 17 18 18 18 18 19 20 19 17 17
25 26 27 31 35 37 38 39 39 39 38 36 35 34 33 32 33 33 33 34 32 32 32 31 31 30 30 28 27 26 24 22 21 20 18 16 16 15 15 15 15 16 16 17 17 17 18 19 21 20 19 18
23 24 25 30 34 37 40 40 40 41 40 37 35 35 35 34 35 35 35 35 34 34 34 33 32 31 30 29 28 27 26 24 22 21 19 17 16 15 14 14 14 15 15 16 16 17 17 18 20 20 20 18
18 23 27 28 31 37 41 41 41 42 42 41 39 38 38 37 36 36 36 36 36 36 35 34 33 32 31 30 29 28 27 25 22 20 19 17 16 15 14 14 14 14 15 15 15 16 17 19 20 21 21 19
15 18 25 28 28 34 39 41 43 43 42 41 41 40 40 39 39 38 38 38 38 37 36 35 34 32 32 31 30 29 27 26 23 21 18 17 16 15 14 14 14 14 15 15 15 16 17 19 20 21 22 21
16 15 20 28 30 32 35 37 39 41 40 39 39 40 41 41 40 40 39 39 39 39 38 36 35 33 32 31 30 29 28 26 23 21 20 18 17 17 16 16 16 16 15 15 16 16 17 19 19 21 22 22
16 16 18 26 30 31 33 35 37 39 38 37 36 38 40 41 41 41 40 39 39 39 39 37 36 34 33 32 30 29 28 26 24 23 22 21 20 19 18 18 18 18 17 17 16 17 18 19 19 20 22 24
19 17 17 23 28 30 31 32 36 37 37 37 37 36 37 39 40 41 41 40 40 39 39 38 36 35 34 33 31 30 29 27 26 25 24 23 23 21 20 19 19 18 18 17 17 17 18 19 19 20 22 24
17 20 19 21 25 30 32 31 32 33 35 37 37 37 37 37 38 39 40 40 40 39 39 38 37 36 35 34 32 31 30 29 28 27 26 26 25 25 24 22 21 20 18 17 17 17 18 19 19 19 20 23
9 13 20 24 26 28 31 32 31 29 31 32 31 33 36 36 36 37 39 40 40 39 39 38 37 37 36 35 34 33 32 31 30 30 29 28 27 26 26 25 24 22 19 17 16 17 18 19 19 20 20 21
26 13 6 14 22 28 30 32 32 30 30 29 27 28 31 33 34 36 38 40 40 39 38 37 36 36 37 37 36 35 35 33 32 31 30 30 29 27 27 27 26 25 22 19 17 17 18 19 19 19 20 20
32 28 22 16 8 14 24 28 28 27 29 30 30 30 30 31 31 32 34 36 38 39 38 37 35 35 36 37 38 37 36 34 33 32 31 31 30 28 26 26 26 26 24 21 19 18 17 18 18 18 19 20
36 35 32 31 29 19 9 13 22 26 28 29 31 32 32 32 32 33 33 35 37 38 37 36 35 34 34 35 37 38 37 37 36 35 33 32 31 30 27 25 26 26 26 24 20 17 18 18 16 16 17 18
34 34 33 31 32 31 26 18 10 18 25 27 28 30 32 34 34 35 36 37 38 37 37 36 35 34 35 35 36 38 38 39 38 36 35 33 32 32 30 29 27 28 28 25 20 16 16 17 16 15 16 16
31 29 27 25 26 28 27 27 23 13 13 20 25 27 30 33 34 35 35 37 36 36 37 38 37 36 37 38 38 36 36 37 37 37 36 35 33 32 32 32 31 32 30 23 20 17 12 10 11 14 16 16
34 29 25 22 24 27 26 26 26 22 17 12 13 20 25 29 31 32 33 34 34 34 36 37 38 38 38 39 38 36 34 33 35 37 37 37 36 33 30 29 32 36 33 25 22 16 8 5 6 8 13 17
36 33 30 26 24 25 25 25 25 23 24 24 18 13 14 21 25 28 32 34 35 36 37 37 39 39 38 40 40 40 37 34 33 34 36 38 37 35 31 28 32 38 36 30 25 13 4 4 4 3 9 16
37 37 36 35 32 30 29 29 30 29 30 31 28 24 17 15 19 23 28 32 35 36 38 40 40 39 39 40 40 41 40 38 36 33 34 35 36 37 34 31 31 35 36 35 32 22 9 6 3 3 8 13
36 36 37 37 35 33 31 29 28 28 28 29 29 28 24 18 16 20 24 27 30 32 34 37 39 39 40 40 40 42 42 41 39 37 36 34 34 36 36 32 28 32 36 35 35 31 20 12 6 6 12 9
37 34 33 33 31 28 27 25 24 24 24 26 28 28 25 22 18 17 21 25 27 29 31 33 34 36 38 39 40 41 42 41 41 42 42 39 36 34 33 31 28 30 34 33 33 35 29 16 7 11 16 10
Wind_Direction
170 165 159 155 156 159 158 156 156 157 156 149 148 149 149 151 151 150 147 145 144 143 141 139 138 137 138 138 134 131 134 135 130 127 124 119 117 115 111 107 120 128 131 130 128 129 129 120 105 100 114 124
173 168 163 164 163 163 163 163 164 159 155 153 153 153 153 156 154 152 151 148 147 145 144 143 142 141 142 141 139 136 137 139 137 137 133 126 127 124 116 120 128 131 133 132 131 132 133 129 113 100 110 123
176 172 170 173 168 166 167 168 167 161 157 156 156 158 159 159 156 154 156 153 150 148 149 149 146 146 145 144 144 142 141 140 136 137 136 131 134 135 132 136 137 136 137 137 134 134 136 136 122 99 106 124
177 176 179 178 173 171 169 168 167 164 163 160 159 163 163 161 158 157 159 157 153 152 153 152 150 150 150 150 149 148 147 145 140 136 135 136 138 143 144 144 145 146 145 144 142 139 140 141 127 101 108 128
181 180 183 180 177 174 171 171 170 168 165 162 163 166 165 164 162 160 162 161 158 156 155 154 151 153 154 153 152 152 149 148 146 140 142 146 143 147 153 154 155 155 157 157 153 148 146 145 133 111 116 132
187 183 183 181 178 174 174 172 170 168 166 166 166 166 166 167 166 164 165 165 162 159 159 158 156 156 156 155 153 152 150 149 148 145 151 153 149 154 162 165 164 164 167 169 166 160 155 152 143 123 124 134
192 188 185 182 177 175 174 171 170 169 169 170 167 166 166 166 167 168 169 168 164 162 161 160 159 158 157 158 155 153 153 151 152 157 160 156 155 160 164 170 173 174 175 176 176 170 163 160 154 136 128 139
196 195 190 182 177 177 176 173 174 173 172 171 168 166 166 166 169 171 172 171 166 165 163 161 160 159 160 161 158 157 156 156 163 170 167 159 161 163 164 171 177 180 182 181 181 177 170 167 164 150 138 145
199 197 191 184 181 180 178 177 176 175 173 171 169 167 167 170 173 173 174 172 170 170 167 166 164 164 167 167 165 165 162 166 172 172 168 165 165 166 166 171 175 178 182 182 181 179 175 171 169 161 150 152
208 198 192 190 186 180 177 177 177 177 175 172 171 170 171 174 176 176 176 175 174 175 173 171 170 169 172 172 172 172 171 174 176 171 172 171 169 171 172 172 175 177 180 182 182 181 180 177 173 168 161 158
212 202 198 195 189 184 180 179 179 178 177 175 175 175 176 178 180 181 180 181 180 180 179 175 175 175 175 175 176 177 178 178 178 177 177 174 173 175 176 177 180 182 183 184 183 184 184 183 179 174 169 166
213 207 203 197 190 188 185 183 181 179 177 178 180 180 181 184 186 186 186 187 186 185 184 182 181 181 180 180 180 181 182 181 182 183 181 177 177 177 178 180 183 186 187 187 186 186 186 186 183 179 174 173
224 216 207 199 192 188 187 186 184 181 180 181 183 185 187 190 191 191 192 192 191 188 187 187 187 187 187 186 185 184 183 182 182 181 182 182 181 180 180 181 183 187 190 189 189 189 189 188 185 182 178 177
232 229 216 206 198 191 189 188 186 185 185 186 188 191 194 196 195 194 195 195 193 191 190 190 190 192 192 191 191 188 184 184 182 180 182 184 184 183 182 185 187 189 192 192 191 191 192 191 189 186 181 181
235 236 226 213 200 193 191 190 191 191 190 191 192 194 196 197 197 197 196 196 195 193 193 193 193 195 195 195 195 192 189 188 187 185 186 187 186 185 185 188 190 193 195 195 193 191 193 193 192 190 186 185
228 239 234 223 205 197 195 193 195 195 194 195 195 195 196 197 198 197 197 197 196 195 195 196 195 195 196 197 197 195 195 194 192 191 190 189 187 186 187 189 190 194 197 196 194 192 193 194 195 193 190 189
224 231 236 229 215 203 200 197 197 198 199 199 197 196 196 197 198 198 198 198 198 198 198 198 198 197 198 200 199 198 198 197 195 192 189 187 185 185 185 186 188 190 193 197 195 192 193 194 197 196 193 193
225 224 230 231 222 211 207 203 201 202 203 203 200 198 197 197 198 199 199 199 200 200 199 199 199 199 200 202 202 200 199 199 197 194 190 185 182 183 183 184 186 188 190 194 194 191 192 193 197 197 195 195
228 223 224 229 226 220 216 212 209 208 207 205 203 201 200 200 200 200 200 201 202 201 200 200 200 201 201 202 203 202 201 200 198 195 192 187 182 180 182 183 185 189 190 192 193 190 190 192 195 197 197 197
241 228 223 227 229 225 221 219 217 213 209 208 205 202 203 203 202 202 201 201 201 202 202 201 201 202 202 202 203 203 202 200 199 196 192 192 190 183 181 182 183 188 192 191 190 190 190 193 195 197 199 199
342 246 231 228 229 228 223 221 222 219 214 213 209 206 207 207 205 204 203 202 201 203 204 204 203 202 202 203 203 202 201 201 201 199 195 193 194 191 184 182 182 183 188 190 190 191 192 194 197 199 200 202
23 15 296 242 232 229 226 224 225 225 221 218 217 217 216 214 212 209 208 206 203 204 207 206 204 203 202 202 201 201 200 201 201 201 199 193 192 195 191 185 184 184 187 188 190 192 194 197 198 200 204 204
23 25 22 11 333 243 228 224 225 228 228 225 224 226 226 224 220 215 212 210 207 207 207 205 204 203 202 201 201 200 199 199 199 199 199 195 191 194 197 195 189 186 186 187 191 191 192 198 199 201 206 207
19 19 18 17 15 4 314 249 232 228 231 232 231 231 232 230 226 222 218 215 212 210 208 205 205 204 202 203 202 201 199 199 200 199 198 197 194 191 194 198 193 188 184 181 182 185 188 195 201 203 207 210
18 16 14 13 12 10 9 0 303 243 231 232 236 237 236 233 229 224 221 218 216 213 211 209 208 206 204 205 206 205 204 203 202 201 200 198 195 192 189 190 191 187 179 170 168 176 185 192 199 203 207 213
18 16 14 13 11 11 15 18 11 338 271 245 238 236 236 235 230 225 221 220 219 217 215 213 211 209 208 208 208 208 207 205 203 201 200 195 192 192 190 188 187 183 176 169 167 165 165 181 197 204 210 215
18 16 15 16 14 14 16 18 21 18 3 326 270 247 238 236 233 228 224 222 222 221 218 216 216 214 212 211 210 210 209 207 204 201 199 197 192 189 188 187 187 186 185 175 161 149 145 171 185 208 218 216
20 18 17 16 14 14 13 10 12 17 17 10 355 320 269 248 241 235 231 229 228 227 223 222 222 220 217 216 214 213 211 208 207 204 200 199 196 189 184 185 188 192 193 184 168 150 116 134 141 215 217 211
21 21 19 16 13 10 8 7 8 8 5 4 3 357 339 295 262 247 238 234 233 230 226 224 225 223 220 219 216 214 213 211 209 207 206 204 200 195 190 187 189 192 196 197 191 180 154 134 162 230 185 192
22 22 21 20 17 13 9 8 9 6 359 356 357 357 356 340 303 274 256 245 240 235 230 227 225 224 222 220 218 216 215 213 209 209 211 210 205 203 199 192 188 191 196 202 203 197 190 187 199 184 159 157
23 22 21 21 20 17 14 8 3 1 358 357 357 357 358 355 343 313 284 267 256 247 240 235 229 226 224 222 220 218 216 214 213 212 213 213 211 210 207 199 193 194 196 200 207 208 207 210 214 183 174 169